Weather History for KBLH - August, 2012

Change the Weather History Date:

Thursday, August 16, 2012

  Actual Average Record
Temperature  
Mean Temperature 83 °F -  
Max Temperature 91 °F 105 °F 115 °F (1992)
Min Temperature 75 °F 80 °F 64 °F (1976)
Cooling Degree Days 18    
Growing Degree Days 33 (Base 50)    
Moisture  
Dew Point 71 °F    
Average Humidity 62    
Maximum Humidity 82    
Minimum Humidity 45    
Precipitation  
Precipitation 0.28 in - - ()
Sea Level Pressure  
Sea Level Pressure 29.85 in    
Wind  
Wind Speed 7 mph (SSW)    
Max Wind Speed 15 mph    
Max Gust Speed 23 mph    
Visibility 10 miles    
Events Rain , Thunderstorm    
Averages and records for this station are not official NWS values.
T = Trace of Precipitation, MM = Missing Value Source: NWS Daily Summary

Daily Weather History Graph

Daily Weather History Graph

Search for Another Location

Airport or City:

Trip Planner

Search our weather history database for the weather conditions in past years. The results will help you decide how hot, cold, wet, or windy it might be!

Date:

Astronomy

Aug. 16, 2012 Rise Set
Actual Time 6:02 AM PDT 7:23 PM PDT
Civil Twilight 5:35 AM PDT 7:49 PM PDT
Nautical Twilight 5:04 AM PDT 8:20 PM PDT
Astronomical Twilight 4:31 AM PDT 8:53 PM PDT
Moon 5:05 AM PDT (8/16) 6:37 PM PDT (8/16)
Length of Visible Light 14h 13m
Length of Day
13h 21m
Waning Crescent, 1% of the Moon is Illuminated
Aug 16
Waning Crescent
Aug 17
New
Aug 24
First Quarter
Aug 31
Full
Sep 8
Last Quarter

Hourly Weather History & Observations

Time (PDT) Temp. Heat Index Dew Point Humidity Pressure Visibility Wind Dir Wind Speed Gust Speed Precip Events Conditions
12:52 AM 89.1 °F 91.3 °F 66.0 °F 46% 29.76 in 10.0 mi Calm Calm - N/A   Clear
1:52 AM 88.0 °F 90.3 °F 66.0 °F 48% 29.77 in 10.0 mi SSW 4.6 mph - N/A   Clear
2:52 AM 87.1 °F 89.9 °F 66.9 °F 51% 29.77 in 10.0 mi South 11.5 mph - N/A   Clear
3:52 AM 86.0 °F 89.4 °F 68.0 °F 55% 29.78 in 10.0 mi South 9.2 mph - N/A   Clear
4:52 AM 86.0 °F 91.5 °F 71.1 °F 61% 29.79 in 10.0 mi South 10.4 mph - N/A   Clear
5:52 AM 86.0 °F 92.2 °F 72.0 °F 63% 29.81 in 10.0 mi SSW 11.5 mph - N/A   Clear
6:52 AM 86.0 °F 92.2 °F 72.0 °F 63% 29.83 in 10.0 mi SSW 9.2 mph - N/A   Clear
7:52 AM 87.1 °F 93.6 °F 72.0 °F 61% 29.85 in 10.0 mi South 11.5 mph - N/A   Clear
8:52 AM 87.1 °F 93.6 °F 72.0 °F 61% 29.87 in 10.0 mi South 12.7 mph - N/A   Clear
9:52 AM 87.1 °F 91.3 °F 69.1 °F 55% 29.89 in 10.0 mi South 11.5 mph - 0.00 in   Clear
10:52 AM 86.0 °F 90.1 °F 69.1 °F 57% 29.90 in 10.0 mi SSW 15.0 mph - N/A Thunderstorm Partly Cloudy
11:19 AM 84.2 °F 90.9 °F 73.4 °F 70% 29.91 in 10.0 mi South 13.8 mph 21.9 mph 0.00 in Rain Light Rain
11:52 AM 81.0 °F 85.2 °F 72.0 °F 74% 29.90 in 10.0 mi South 8.1 mph - 0.00 in   Partly Cloudy
12:18 PM 82.4 °F 86.3 °F 69.8 °F 66% 29.92 in 10.0 mi SW 8.1 mph - 0.00 in Rain , Thunderstorm Light Rain
12:52 PM 81.0 °F 85.8 °F 73.0 °F 77% 29.88 in 10.0 mi West 4.6 mph - 0.01 in Rain , Thunderstorm Light Thunderstorms and Rain
1:52 PM 75.9 °F - 70.0 °F 82% 29.88 in 5.0 mi West 5.8 mph - 0.03 in Rain , Thunderstorm Thunderstorms and Rain
2:09 PM 78.8 °F - 71.6 °F 78% 29.87 in 9.0 mi NW 3.5 mph - 0.01 in Rain Light Rain
2:52 PM 84.0 °F 87.8 °F 69.1 °F 61% 29.83 in 10.0 mi WSW 5.8 mph - 0.01 in   Clear
3:52 PM 87.1 °F 91.3 °F 69.1 °F 55% 29.81 in 10.0 mi WSW 8.1 mph - N/A   Clear
4:52 PM 89.1 °F 92.9 °F 68.0 °F 50% 29.79 in 10.0 mi West 8.1 mph - N/A   Clear
5:52 PM 91.0 °F 94.3 °F 66.9 °F 45% 29.79 in 10.0 mi SSW 4.6 mph - N/A   Clear
6:52 PM 89.1 °F 94.1 °F 70.0 °F 53% 29.79 in 10.0 mi Calm Calm - N/A   Clear
7:52 PM 89.1 °F 96.0 °F 72.0 °F 57% 29.81 in 10.0 mi South 3.5 mph - N/A   Partly Cloudy
8:52 PM 87.1 °F 96.3 °F 75.0 °F 67% 29.85 in 10.0 mi SE 3.5 mph - N/A   Mostly Cloudy
9:52 PM 89.1 °F 97.0 °F 73.0 °F 59% 29.88 in 10.0 mi SW 5.8 mph - N/A   Clear
10:52 PM 87.1 °F 95.4 °F 73.9 °F 65% 29.89 in 10.0 mi SE 9.2 mph - N/A   Partly Cloudy
11:10 PM 86.0 °F 95.1 °F 75.2 °F 70% 29.91 in 10.0 mi Calm Calm - N/A Thunderstorm Clear
11:24 PM 86.0 °F 93.4 °F 73.4 °F 66% 29.92 in 10.0 mi ESE 8.1 mph - N/A Thunderstorm Mostly Cloudy
11:52 PM 78.1 °F - 69.1 °F 74% 29.90 in 1.5 mi SE 12.7 mph 23.0 mph 0.23 in Rain , Thunderstorm Heavy Thunderstorms and Rain